Flag for U.S.A. Weather past 2 weeks in Vancouver, Washington, U.S.A.

Now
43 °F

Passing clouds.


Feels Like: 43 °F
Forecast: 47 / 55 °F
Wind: No wind

Location: Vancouver - Pearson Airpark

Current Time: Dec 22, 2014 at 7:17:43 PM

Latest Report: Dec 22, 2014 at 6:53 PM


Visibility: 9 mi

Pressure: 30.35 "Hg

Humidity: 97%

Dew point: 42 °F

Location of VancouverLocation

Historic Weather in Vancouver — Graph

°F

Vancouver temperature yesterday

Maximum temperature yesterday: 57 °F (at 12:53 AM)
Minimum temperature yesterday: 50 °F (at 11:53 PM)
Average temperature yesterday: 54 °F

Past Weeks' High & Low Weather Summary

 TemperatureHumidityPressure
High63 °F (Dec 11, 2:53 PM)97% (Dec 11, 3:53 AM)30.39 "Hg (Dec 11, 3:53 AM)
Low35 °F (Dec 14, 7:53 AM)45% (Dec 11, 2:53 PM)29.13 "Hg (Dec 11, 12:53 PM)
Average47 °F80%29.89 "Hg
* Reported Dec 7 5:53 PM — Dec 22 5:53 PM, Vancouver, Weather by CustomWeather, © 2014

Note: Actual official high and low records may vary slightly from our data, if they occured in-between our weather recording intervals... More about our weather records

Advertising

Vancouver weather history for previous 24 hours

 ConditionsComfort  
Time TempWeatherWind HumidityBarometerVisibility
5:53 PM
Dec 22
47 °FOvercast.No wind86%30.34 "Hg10 mi
4:53 PM51 °FPassing clouds.No wind77%30.34 "Hg10 mi
3:53 PM53 °FMore clouds than sun.3 mph74%30.36 "Hg10 mi
2:53 PM55 °FOvercast.No wind67%30.35 "Hg10 mi
1:53 PM54 °FSunny.No wind72%30.35 "Hg10 mi
12:53 PM53 °FScattered clouds.No wind74%30.36 "Hg10 mi
11:53 AM53 °FScattered clouds.3 mph80%30.37 "Hg9 mi
10:53 AM49 °FPartly sunny.5 mph93%30.39 "Hg9 mi
10:00 AM48 °FFog.No wind96%30.39 "Hg5 mi
8:53 AM48 °FFog.No wind96%30.37 "Hg0 mi
8:03 AM43 °FFog.No wind97%30.35 "Hg1 mi
7:01 AM44 °FFog.No wind96%30.31 "Hg1 mi
6:58 AM45 °FFog.No wind97%30.31 "Hg2 mi
5:53 AM46 °FFog.No wind96%30.29 "Hg1 mi
5:01 AM48 °FFog.No wind96%30.27 "Hg1 mi
3:56 AM49 °FFog.No wind97%30.26 "Hg3 mi
2:53 AM50 °FOvercast.No wind93%30.24 "Hg10 mi
1:53 AM50 °FMostly cloudy.No wind93%30.20 "Hg9 mi
12:53 AM50 °FFog.No wind96%30.19 "Hg5 mi
11:53 PM
Dec 21
50 °FLight rain. Fog.No wind96%30.18 "Hg2 mi
11:00 PM51 °FOvercast.No wind89%30.17 "Hg10 mi
9:53 PM52 °FLight rain. Overcast.No wind86%30.16 "Hg9 mi
8:53 PM52 °FOvercast.5 mph83%30.15 "Hg10 mi
7:53 PM52 °FMostly cloudy.No wind86%30.15 "Hg10 mi
Weather by CustomWeather, © 2014

See weather overviewHow to use our weather pages